Last 48 Hours

Stanford Met Tower

Hourly Data | America/Los_Angeles
as of 9/1/26 4:02 PM PDT
Date & Time Temp (°F) RH (%) Dew Pt (°F) Wind Dir (°) Wind Spd (mph) Wind Gust (mph) Solar Rad (W/m2) Pressure (mb) NowCast AQI Value (AQI) NowCast AQI Status Latest Rain (In) Daily Rain (In) Daily Min Temp (°F) Daily Max Temp (°F)
9/1/26 - 1600 70.5 49 51.1 WSW | 258 10.3 21.8 708 1,017.2 21 Good 0.00 0.00 53.0 72.7
9/1/26 - 1500 70.7 50 52.3 NW | 309 5.4 18.6 824 1,016.7 21 Good 0.00 0.00 53.0 72.7
9/1/26 - 1400 70.9 47 50.6 SSW | 212 4.3 13.4 827 1,016.9 21 Good 0.00 0.00 53.0 72.7
9/1/26 - 1300 68.2 51 50.4 WSW | 245 3.6 11.8 603 1,017.9 21 Good 0.00 0.00 53.0 70.3
9/1/26 - 1200 65.9 57 51.4 N | 11 2.3 7.9 424 1,018.5 21 Good 0.00 0.00 53.0 67.3
9/1/26 - 1100 64.2 61 51.4 WNW | 287 1.7 5.9 224 1,018.9 21 Good 0.00 0.00 53.0 65.1
9/1/26 - 1000 63.4 61 50.5 WSW | 237 1.2 6.0 192 1,018.5 21 Good 0.00 0.00 53.0 64.4
9/1/26 - 0900 62.2 64 50.7 SW | 225 2.0 7.0 122 1,018.6 21 Good 0.00 0.00 53.0 63.4
9/1/26 - 0800 60.8 68 51.1 SSW | 211 2.8 6.5 46 1,018.2 21 Good 0.00 0.00 53.0 62.0
9/1/26 - 0700 60.4 68 50.8 SW | 220 3.3 8.8 2 1,017.4 21 Good 0.00 0.00 53.0 61.1
9/1/26 - 0600 60.2 69 51.1 SSW | 204 4.6 9.7 0 1,017.0 21 Good 0.00 0.00 53.0 60.8
9/1/26 - 0500 60.0 70 51.2 SSW | 193 2.7 7.4 0 1,016.9 21 Good 0.00 0.00 53.0 60.6
9/1/26 - 0400 59.3 74 52.1 SW | 227 2.3 6.9 0 1,017.1 21 Good 0.00 0.00 53.0 60.5
9/1/26 - 0300 57.2 83 53.2 W | 263 1.4 5.8 0 1,016.9 21 Good 0.00 0.00 53.0 58.8
9/1/26 - 0200 54.4 90 52.6 SSW | 208 0.6 4.0 0 1,017.1 21 Good 0.00 0.00 53.0 56.1
9/1/26 - 0100 52.6 92 51.4 SSW | 193 3.3 6.0 0 1,017.1 21 Good 0.00 0.00 51.4 69.2
9/1/26 - 0000 52.9 92 51.6 SSW | 196 1.1 5.5 0 1,017.2 21 Good 0.00 0.00 51.4 69.2
8/31/26 - 2300 54.0 90 52.0 SSW | 202 1.2 4.4 0 1,017.3 21 Good 0.00 0.00 51.4 69.2
8/31/26 - 2200 57.2 81 52.3 WSW | 251 1.0 6.5 0 1,017.0 21 Good 0.00 0.00 51.4 69.2
8/31/26 - 2100 59.4 74 52.1 WSW | 248 2.3 9.4 0 1,016.5 21 Good 0.00 0.00 51.4 69.2
8/31/26 - 2000 61.8 70 52.7 WSW | 242 6.5 11.4 28 1,015.7 21 Good 0.00 0.00 51.4 69.2
8/31/26 - 1900 64.6 65 53.4 WSW | 246 7.5 15.3 148 1,015.3 21 Good 0.00 0.00 51.4 69.2
8/31/26 - 1800 66.8 61 53.7 WNW | 284 7.7 17.6 365 1,015.0 21 Good 0.00 0.00 51.4 69.2
8/31/26 - 1700 66.8 62 54.2 NNW | 327 9.2 20.3 532 1,014.7 21 Good 0.00 0.00 51.4 69.2
8/31/26 - 1600 67.7 62 55.0 NW | 311 7.8 16.0 718 1,014.6 21 Good 0.00 0.00 51.4 69.2
8/31/26 - 1500 67.4 63 55.4 W | 279 7.5 18.9 826 1,014.9 21 Good 0.00 0.00 51.4 69.2
8/31/26 - 1400 67.1 65 56.0 WSW | 240 7.6 14.7 860 1,015.6 21 Good 0.00 0.00 51.4 69.2
8/31/26 - 1300 64.5 70 55.5 WNW | 298 4.5 13.6 405 1,016.4 21 Good 0.00 0.00 51.4 66.2
8/31/26 - 1200 63.4 71 54.8 NW | 326 2.1 9.1 358 1,016.8 21 Good 0.00 0.00 51.4 64.5
8/31/26 - 1100 61.6 73 53.8 WNW | 288 1.3 6.2 258 1,017.2 21 Good 0.00 0.00 51.4 63.1
8/31/26 - 1000 60.5 74 53.1 WNW | 290 0.6 5.8 196 1,017.2 21 Good 0.00 0.00 51.4 61.5
8/31/26 - 0900 57.1 88 54.6 E | 83 0.1 3.4 122 1,016.9 21 Good 0.00 0.00 51.4 60.1
8/31/26 - 0800 52.1 96 52.0 SW | 222 0.2 3.7 42 1,017.1 21 Good 0.00 0.00 51.4 57.9
8/31/26 - 0700 52.2 93 51.4 SW | 226 0.6 5.3 3 1,016.5 21 Good 0.00 0.00 51.6 57.9
8/31/26 - 0600 53.0 91 51.6 WSW | 248 3.9 7.7 0 1,016.0 21 Good 0.00 0.00 52.6 57.9
8/31/26 - 0500 54.6 86 51.7 SSW | 201 3.6 8.4 0 1,015.7 21 Good 0.00 0.00 53.2 57.9
8/31/26 - 0400 55.3 88 52.7 SW | 215 3.5 11.2 0 1,015.4 21 Good 0.00 0.00 54.8 57.9
8/31/26 - 0300 56.9 87 54.0 SSW | 209 4.0 7.2 0 1,015.0 21 Good 0.00 0.00 55.9 57.9
8/31/26 - 0200 56.8 90 54.8 SSW | 203 3.4 7.0 0 1,015.0 21 Good 0.00 0.00 55.9 57.7
8/31/26 - 0100 55.3 93 54.3 S | 187 2.0 5.2 0 1,015.4 21 Good 0.00 0.00 49.1 72.3
8/31/26 - 0000 55.5 92 54.1 SE | 135 1.4 5.6 0 1,015.4 21 Good 0.00 0.00 49.1 72.3
8/30/26 - 2300 57.0 89 54.9 SSE | 147 2.1 5.9 0 1,015.3 21 Good 0.00 0.00 49.1 72.3
8/30/26 - 2200 59.0 84 55.3 SSE | 162 0.3 3.7 0 1,015.2 21 Good 0.00 0.00 49.1 72.3
8/30/26 - 2100 62.2 74 54.8 S | 175 2.2 6.3 0 1,014.6 21 Good 0.00 0.00 49.1 72.3
8/30/26 - 2000 66.6 65 55.4 SSW | 197 2.5 8.1 22 1,013.9 21 Good 0.00 0.00 49.1 72.3
8/30/26 - 1900 70.5 59 56.6 NNE | 22 2.2 8.0 178 1,013.2 21 Good 0.00 0.00 49.1 72.3
8/30/26 - 1800 71.0 62 58.3 NNE | 31 5.0 11.0 375 1,013.0 21 Good 0.00 0.00 49.1 72.3
8/30/26 - 1700 70.8 62 57.9 NNE | 23 6.1 13.5 563 1,013.2 21 Good 0.00 0.00 49.1 72.3
8/30/26 - 1600 70.6 62 58.0 NNE | 15 7.4 13.4 718 1,013.3 21 Good 0.00 0.00 49.1 72.3
Max 71.0 96 58.3 - 10.3 21.8 860 1,018.9 21 - 0.00 0.00 55.9 72.7
Avg 61.5 73 53.3 - 3.5 9.3 218 1,016.2 21 - 0.00 - - -
Min 52.1 47 50.4 - 0.1 3.4 0 1,013.0 21 - 0.00 0.00 49.1 56.1
Total - - - - - - - - - - 0.00 - - -